Date String (YYYY-MM-DD hh:mm:ss) UTC,Instrument flags,Ambient pressure (hPa),Sample flow (lpm),Bypass flow (lpm),Sample temperature (°C),Ambient temperature (°C),ASC tube jacket temperature (°C),LED temperature (°C),Box temperature (°C),Sample RH (%),Span deviation,Mass concentration (μg/m³),Mass concentration (μg/m³),Mass concentration (μg/m³)
DateTimeUTC,F1_M11,P_M11,Q1_M11,Q2_M11,T1_M11,T2_M11,T3_M11,T4_M11,T5_M11,U1_M11,ZSPAN_M11,X0_M11,X2_M11,X1_M11
2022-08-18 16:00:00,,0831.5,5.00,0.00,29.7,27.6,00.0,38.4,31.4,23.0,0000.0,0010.39,0006.29,0005.87
2022-08-18 16:01:00,,0831.6,5.01,0.00,29.7,27.6,00.0,38.4,31.4,23.0,0000.0,0010.32,0006.34,0005.89
2022-08-18 16:02:00,,0831.5,4.99,0.00,29.6,27.7,00.0,38.4,31.4,23.3,0000.0,0010.24,0006.34,0005.92
2022-08-18 16:03:00,,0831.5,5.01,0.00,29.6,27.8,00.0,38.4,31.4,23.3,0000.0,0010.18,0006.32,0005.93
2022-08-18 16:04:00,,0831.5,4.99,0.00,29.6,28.0,00.0,38.4,31.5,24.0,0000.0,0010.18,0006.33,0005.95
2022-08-18 16:05:00,,0831.5,4.99,0.00,29.6,28.1,00.0,38.4,31.5,23.9,0000.0,0010.46,0006.32,0005.96
2022-08-18 16:06:00,,0831.5,5.00,0.00,29.7,28.3,00.0,38.4,31.5,23.3,0000.0,0010.67,0006.33,0005.95
2022-08-18 16:07:00,,0831.5,5.00,0.00,29.7,28.4,00.0,38.4,31.6,23.0,0000.0,0010.97,0006.34,0005.95
2022-08-18 16:08:00,,0831.5,5.00,0.00,29.7,28.5,00.0,38.4,31.7,22.2,0000.0,0010.70,0006.37,0005.97
2022-08-18 16:09:00,,0831.5,5.01,0.00,29.7,28.6,00.0,38.5,31.7,23.3,0000.0,0010.60,0006.40,0005.98
2022-08-18 16:10:00,,0831.5,4.99,0.00,29.8,28.7,00.0,38.5,31.7,23.0,0000.0,0010.60,0006.44,0005.99
2022-08-18 16:11:00,,0831.5,5.00,0.00,29.8,28.2,00.0,38.4,31.6,22.5,0000.0,0010.72,0006.49,0006.01
2022-08-18 16:12:00,,0831.5,5.00,0.00,29.7,27.7,00.0,38.4,31.4,22.2,0000.0,0011.60,0006.50,0006.03
2022-08-18 16:13:00,,0831.5,4.99,0.00,29.7,27.6,00.0,38.4,31.4,22.9,0000.0,0011.86,0006.56,0006.05
2022-08-18 16:14:00,,0831.6,5.00,0.00,29.6,27.6,00.0,38.4,31.3,23.4,0000.0,0011.93,0006.60,0006.08
2022-08-18 16:15:00,,0831.6,4.99,0.00,29.6,27.8,00.0,38.4,31.3,23.2,0000.0,0011.94,0006.62,0006.10
2022-08-18 16:16:00,,0831.5,5.00,0.00,29.6,27.9,00.0,38.4,31.4,23.0,0000.0,0011.92,0006.68,0006.14
2022-08-18 16:17:00,,0831.6,5.00,0.00,29.6,28.1,00.0,38.4,31.5,23.4,0000.0,0011.90,0006.71,0006.17
2022-08-18 16:18:00,,0831.5,4.99,0.00,29.6,28.2,00.0,38.4,31.5,24.0,0000.0,0011.67,0006.76,0006.21
2022-08-18 16:19:00,,0831.5,4.99,0.00,29.6,28.4,00.0,38.4,31.6,23.9,0000.0,0011.63,0006.79,0006.23
2022-08-18 16:20:00,,0831.6,5.01,0.00,29.7,28.5,00.0,38.4,31.6,22.9,0000.0,0012.23,0006.79,0006.26
2022-08-18 16:21:00,,0831.6,5.01,0.00,29.7,28.6,00.0,38.4,31.7,23.2,0000.0,0012.26,0006.81,0006.30
2022-08-18 16:22:00,,0831.6,5.00,0.00,29.7,28.5,00.0,38.4,31.6,23.4,0000.0,0012.36,0006.80,0006.32
2022-08-18 16:23:00,,0831.6,4.99,0.00,29.7,27.9,00.0,38.4,31.5,23.3,0000.0,0011.50,0006.80,0006.31
2022-08-18 16:24:00,,0831.6,5.02,0.00,29.6,27.5,00.0,38.3,31.4,23.2,0000.0,0011.32,0006.78,0006.33
2022-08-18 16:25:00,,0831.5,4.99,0.00,29.6,27.5,00.0,38.3,31.3,24.0,0000.0,0011.31,0006.80,0006.36
2022-08-18 16:26:00,,0831.6,5.01,0.00,29.5,27.6,00.0,38.3,31.3,23.9,0000.0,0011.48,0006.86,0006.38
2022-08-18 16:27:00,,0831.5,5.00,0.00,29.5,27.7,00.0,38.3,31.3,24.0,0000.0,0011.36,0006.86,0006.38
2022-08-18 16:28:00,,0831.6,5.00,0.00,29.5,27.9,00.0,38.3,31.4,24.3,0000.0,0011.21,0006.86,0006.40
2022-08-18 16:29:00,,0831.6,5.00,0.00,29.6,28.1,00.0,38.3,31.4,24.1,0000.0,0011.44,0006.87,0006.41
2022-08-18 16:30:00,,0831.6,5.00,0.00,29.6,28.2,00.0,38.3,31.5,23.6,0000.0,0011.50,0006.88,0006.41
2022-08-18 16:31:00,,0831.6,5.01,0.00,29.6,28.4,00.0,38.3,31.5,24.2,0000.0,0011.68,0006.88,0006.42
2022-08-18 16:32:00,,0831.6,5.01,0.00,29.6,28.5,00.0,38.4,31.6,24.2,0000.0,0012.04,0006.89,0006.42
2022-08-18 16:33:00,,0831.6,5.00,0.00,29.7,28.6,00.0,38.4,31.6,24.4,0000.0,0012.59,0006.94,0006.44
2022-08-18 16:34:00,,0831.6,5.00,0.00,29.7,28.4,00.0,38.3,31.6,24.4,0000.0,0013.25,0006.99,0006.48
2022-08-18 16:35:00,,0831.5,4.99,0.00,29.6,27.7,00.0,38.3,31.4,23.3,0000.0,0013.25,0006.99,0006.49
2022-08-18 16:36:00,,0831.6,5.01,0.00,29.6,27.4,00.0,38.3,31.3,23.5,0000.0,0013.23,0006.99,0006.50
2022-08-18 16:37:00,,0831.6,5.00,0.00,29.5,27.4,00.0,38.3,31.2,24.5,0000.0,0013.19,0007.00,0006.52
2022-08-18 16:38:00,,0831.6,5.01,0.00,29.5,27.6,00.0,38.3,31.2,24.7,0000.0,0013.07,0007.01,0006.53
2022-08-18 16:39:00,,0831.6,5.00,0.00,29.5,27.7,00.0,38.3,31.3,23.6,0000.0,0013.55,0007.01,0006.54
2022-08-18 16:40:00,,0831.5,5.02,0.00,29.5,27.9,00.0,38.3,31.3,23.9,0000.0,0013.77,0007.04,0006.55
2022-08-18 16:41:00,,0831.6,5.00,0.00,29.5,28.1,00.0,38.3,31.4,24.8,0000.0,0014.05,0007.07,0006.57
2022-08-18 16:42:00,,0831.5,5.00,0.00,29.5,28.2,00.0,38.3,31.5,25.3,0000.0,0013.94,0007.09,0006.56
2022-08-18 16:43:00,,0831.6,5.01,0.00,29.6,28.4,00.0,38.3,31.5,23.9,0000.0,0013.78,0007.06,0006.54
2022-08-18 16:44:00,,0831.5,5.00,0.00,29.6,28.4,00.0,38.3,31.5,24.0,0000.0,0013.11,0006.99,0006.50
2022-08-18 16:45:00,,0831.6,4.99,0.00,29.6,28.0,00.0,38.3,31.4,24.3,0000.0,0012.17,0006.93,0006.47
2022-08-18 16:46:00,,0831.5,5.01,0.00,29.5,27.4,00.0,38.2,31.3,24.8,0000.0,0013.09,0006.88,0006.42
2022-08-18 16:47:00,,0831.5,5.00,0.00,29.5,27.3,00.0,38.2,31.2,25.0,0000.0,0013.49,0006.89,0006.40
2022-08-18 16:48:00,,0831.5,5.00,0.00,29.4,27.4,00.0,38.2,31.1,25.0,0000.0,0013.44,0006.85,0006.36
2022-08-18 16:49:00,,0831.5,5.00,0.00,29.4,27.5,00.0,38.2,31.1,25.1,0000.0,0013.78,0006.84,0006.34
2022-08-18 16:50:00,,0831.5,5.00,0.00,29.4,27.7,00.0,38.2,31.2,24.8,0000.0,0013.48,0006.82,0006.32
2022-08-18 16:51:00,,0831.5,5.01,0.00,29.4,27.9,00.0,38.2,31.3,25.4,0000.0,0013.65,0006.76,0006.29
2022-08-18 16:52:00,,0831.5,5.00,0.00,29.4,28.0,00.0,38.2,31.3,23.5,0001.7,0014.29,0006.73,0006.25
2022-08-18 16:53:00,,0831.5,5.00,0.00,29.5,28.2,00.0,38.2,31.4,22.0,0001.0,0014.21,0006.73,0006.24
2022-08-18 16:54:00,,0831.5,4.99,0.00,29.5,28.3,00.0,38.2,31.5,21.9,0002.8,0014.02,0006.75,0006.26
2022-08-18 16:55:00,,0831.6,5.00,0.00,29.5,28.4,00.0,38.2,31.5,21.7,0002.6,0014.82,0006.78,0006.27
2022-08-18 16:56:00,,0831.5,5.01,0.00,29.6,28.1,00.0,38.2,31.4,21.6,0002.2,0014.49,0006.78,0006.26
2022-08-18 16:57:00,,0831.5,4.99,0.00,29.5,27.5,00.0,38.2,31.2,21.5,0000.8,0013.56,0006.82,0006.28
2022-08-18 16:58:00,,0831.5,5.01,0.00,29.4,27.3,00.0,38.1,31.2,22.0,0000.0,0013.25,0006.85,0006.28
2022-08-18 16:59:00,,0831.5,5.00,0.00,29.4,27.3,00.0,38.1,31.2,22.2,0000.0,0013.34,0006.87,0006.29
